Location: Passo di Treia
(43.2833°N, 13.3333°E)
Time: 06:29:29
(UTC+00:00)

Cosmos 1428 Rocket - Pass Details

Date: 09 December 2019
Orbit: 948 x 988 km, 82.9° (Epoch: 27 January)

Event Time Altitude Azimuth Distance (km) Brightness Sun altitude
Rises 17:11:06 0° 175° (S) 3,621 7.6 -17.5°
Reaches altitude 10° 17:13:35 10° 172° (S) 2,684 6.9 -18.0°
Maximum altitude 17:19:38 62° 93° (E) 1,079 4.4 -19.1°
Drops below altitude 10° 17:25:47 10° 14° (NNE) 2,729 6.6 -20.1°
Sets 17:28:20 0° 12° (NNE) 3,687 7.3 -20.6°
